Location: Coed Ely
(51.5661°N, 3.4150°W)
Time: 03:14:36
(UTC+00:00)

H-2A R/B - Pass Details

Date: 28 January 2021
Orbit: 529 x 651 km, 98.3° (Epoch: 24 February)

Event Time Altitude Azimuth Distance (km) Brightness Sun altitude
Rises 17:37:08 0° 171° (S) 2,797 6.1 -6.6°
Reaches altitude 10° 17:39:15 10° 174° (S) 1,921 5.3 -6.9°
Maximum altitude 17:43:25 66° 257° (WSW) 668 3.0 -7.5°
Drops below altitude 10° 17:47:46 10° 340° (NNW) 2,010 5.2 -8.2°
Sets 17:50:02 0° 344° (NNW) 2,939 6.0 -8.5°
